Alexandria, MN

11:15 PM CDT on August 31, 2016 (GMT -0500)
Chandler

Weather History for KAXN - December, 2013

Change the Weather History Date:

Friday, December 27, 2013

  Actual Average Record
Temperature  
Mean Temperature 30 °F -  
Max Temperature 37 °F 20 °F 41 °F (2003)
Min Temperature 24 °F 4 °F -22 °F (1960)
Degree Days  
Heating Degree Days 34    
Moisture  
Dew Point 28 °F    
Average Humidity 87    
Maximum Humidity 96    
Minimum Humidity 73    
Precipitation  
Precipitation 0.00 in - - ()
Sea Level Pressure  
Sea Level Pressure 29.99 in    
Wind  
Wind Speed 12 mph (West)    
Max Wind Speed 20 mph    
Max Gust Speed 31 mph    
Visibility 10 miles    
Events      
Averages and records for this station are not official NWS values.
T = Trace of Precipitation, MM = Missing Value Source: NWS Daily Summary

Daily Weather History Graph

Daily Weather History Graph

Search for Another Location

Airport or City:

Trip Planner

Search our weather history database for the weather conditions in past years. The results will help you decide how hot, cold, wet, or windy it might be!

Date:

Astronomy

Dec. 27, 2013 Rise Set
Actual Time 8:02 AM CST 4:43 PM CST
Civil Twilight 7:27 AM CST 5:17 PM CST
Nautical Twilight 6:50 AM CST 5:55 PM CST
Astronomical Twilight 6:13 AM CST 6:32 PM CST
Moon 2:24 AM CST (12/27) 1:03 PM CST (12/27)
Length of Visible Light 9h 49m
Length of Day
8h 40m
Waning Crescent, 28% of the Moon is Illuminated
Dec 27
Waning Crescent
Jan 1
New
Jan 7
First Quarter
Jan 15
Full
Jan 23
Last Quarter

Hourly Weather History & Observations

Time (CST) Temp. Windchill Dew Point Humidity Pressure Visibility Wind Dir Wind Speed Gust Speed Precip Events Conditions
12:53 AM 25.0 °F 17.1 °F 21.9 °F 88% 30.14 in 9.0 mi SSW 6.9 mph - N/A   Overcast
1:53 AM 26.1 °F 17.6 °F 24.1 °F 92% 30.12 in 10.0 mi SW 8.1 mph - N/A   Overcast
2:53 AM 27.0 °F 16.1 °F 25.0 °F 92% 30.11 in 10.0 mi SW 12.7 mph - N/A   Overcast
3:43 AM 28.4 °F 17.0 °F 24.8 °F 86% 30.01 in 10.0 mi SW 15.0 mph - N/A   Mostly Cloudy
3:53 AM 28.0 °F 16.5 °F 24.1 °F 85% 30.07 in 10.0 mi SSW 15.0 mph - N/A   Scattered Clouds
4:53 AM 25.0 °F 14.8 °F 23.0 °F 92% 30.07 in 9.0 mi SSW 10.4 mph - N/A   Clear
5:53 AM 25.0 °F 14.2 °F 23.0 °F 92% 30.03 in 9.0 mi South 11.5 mph - N/A   Scattered Clouds
6:53 AM 24.1 °F 11.0 °F 21.9 °F 91% 29.99 in 10.0 mi SSW 16.1 mph - N/A   Clear
7:53 AM 27.0 °F 13.5 °F 23.0 °F 85% 29.97 in 10.0 mi SSW 19.6 mph - N/A   Overcast
8:53 AM 28.9 °F 16.9 °F 25.0 °F 85% 29.94 in 10.0 mi SSW 17.3 mph - N/A   Overcast
9:53 AM 30.9 °F 19.8 °F 25.0 °F 79% 29.94 in 10.0 mi SW 16.1 mph - N/A   Partly Cloudy
10:53 AM 32.0 °F 21.6 °F 26.1 °F 79% 29.94 in 10.0 mi SW 15.0 mph - N/A   Clear
11:53 AM 35.1 °F 25.2 °F 28.0 °F 76% 29.92 in 10.0 mi West 16.1 mph - N/A   Clear
12:53 PM 37.9 °F 27.9 °F 30.0 °F 73% 29.91 in 10.0 mi WNW 19.6 mph 29.9 mph N/A   Clear
1:53 PM 37.9 °F 28.2 °F 30.9 °F 76% 29.92 in 10.0 mi WNW 18.4 mph 31.1 mph N/A   Clear
2:53 PM 37.0 °F 27.7 °F 30.9 °F 79% 29.94 in 10.0 mi WNW 16.1 mph 23.0 mph N/A   Clear
3:53 PM 36.0 °F 26.7 °F 30.9 °F 82% 29.95 in 10.0 mi WNW 15.0 mph - N/A   Clear
4:23 PM 35.6 °F 27.5 °F 30.2 °F 81% 29.91 in 10.0 mi WNW 11.5 mph - N/A   Mostly Cloudy
4:53 PM 36.0 °F 27.1 °F 32.0 °F 86% 29.97 in 10.0 mi WNW 13.8 mph - N/A   Overcast
5:53 PM 35.1 °F 26.4 °F 30.9 °F 85% 30.00 in 10.0 mi WNW 12.7 mph - N/A   Mostly Cloudy
6:03 PM 33.8 °F 24.8 °F 30.2 °F 87% 29.94 in 10.0 mi WNW 12.7 mph - N/A   Scattered Clouds
6:53 PM 32.0 °F 22.5 °F 30.0 °F 92% 30.01 in 10.0 mi WNW 12.7 mph - N/A   Clear
7:35 PM 30.2 °F 21.3 °F 28.4 °F 93% 29.94 in 10.0 mi NNW 10.4 mph - N/A   Partly Cloudy
7:48 PM 30.2 °F 22.6 °F 28.4 °F 93% 29.95 in 10.0 mi NW 8.1 mph - N/A   Mostly Cloudy
7:53 PM 30.9 °F 23.5 °F 28.9 °F 92% 30.01 in 10.0 mi WNW 8.1 mph - N/A   Mostly Cloudy
8:53 PM 32.0 °F 24.2 °F 30.0 °F 92% 30.01 in 10.0 mi WNW 9.2 mph - N/A   Overcast
9:53 PM 32.0 °F 24.8 °F 30.0 °F 92% 30.01 in 10.0 mi West 8.1 mph - N/A   Overcast
10:31 PM 32.0 °F 25.6 °F 30.2 °F 93% 29.94 in 10.0 mi West 6.9 mph - N/A   Overcast
10:53 PM 32.0 °F 27.5 °F 30.9 °F 96% 29.99 in 10.0 mi West 4.6 mph - N/A   Overcast
11:53 PM 32.0 °F - 30.9 °F 96% 29.97 in 9.0 mi Calm Calm - N/A   Overcast